EZS1530 EBBR-LSGG

Flight info

Callsign EZS1530
Flight time 2h 10m
Altitude 31000
Route ROUSY DCT GTQ DCT POGOL DCT LASAT DCT MOROK Z24 AKITO
Aircraft A320/M-SDE3FGHIRWY/LB1

Departure

Time 2026-05-04 14:15
Airport Brussels Airport (EBBR)

Arrival

Time 2026-05-04 16:26
Airport Geneva International Airport (LSGG)
Time Latitude Longitude Altitude Speed Heading
2026-05-04 13:38 50.90230 4.47951 120 ft 0 kts 155°
2026-05-04 13:55 50.90230 4.47950 121 ft 0 kts 155°
2026-05-04 14:01 50.90271 4.47921 118 ft 4 kts 153°
2026-05-04 14:02 50.90293 4.47899 116 ft 4 kts 125°
2026-05-04 14:02 50.90298 4.47877 118 ft 0 kts 66°
2026-05-04 14:06 50.90298 4.47878 118 ft 1 kts 66°
2026-05-04 14:06 50.90309 4.47916 118 ft 6 kts 64°
2026-05-04 14:06 50.90335 4.47997 116 ft 10 kts 62°
2026-05-04 14:06 50.90395 4.48034 121 ft 11 kts 359°
2026-05-04 14:07 50.90463 4.48090 118 ft 12 kts 36°
2026-05-04 14:07 50.90537 4.48172 119 ft 13 kts 36°
2026-05-04 14:07 50.90614 4.48262 120 ft 15 kts 36°
2026-05-04 14:07 50.90701 4.48220 118 ft 15 kts 320°
2026-05-04 14:08 50.90804 4.48161 117 ft 17 kts 343°
2026-05-04 14:08 50.90891 4.48214 118 ft 15 kts 59°
2026-05-04 14:08 50.90947 4.48368 119 ft 17 kts 58°
2026-05-04 14:08 50.91009 4.48536 118 ft 18 kts 61°
2026-05-04 14:09 50.91152 4.48907 117 ft 21 kts 59°
2026-05-04 14:09 50.91227 4.49113 119 ft 22 kts 59°
2026-05-04 14:10 50.91379 4.49537 118 ft 22 kts 68°
2026-05-04 14:10 50.91441 4.49761 118 ft 22 kts 66°
2026-05-04 14:10 50.91466 4.49848 115 ft 5 kts 70°
2026-05-04 14:10 50.91463 4.49895 116 ft 3 kts 113°
2026-05-04 14:11 50.91444 4.49926 116 ft 8 kts 140°
2026-05-04 14:11 50.91388 4.49981 117 ft 0 kts 149°
2026-05-04 14:13 50.91388 4.49982 116 ft 1 kts 149°
2026-05-04 14:14 50.91343 4.50018 115 ft 10 kts 154°
2026-05-04 14:14 50.91192 4.50061 116 ft 13 kts 228°
2026-05-04 14:14 50.91150 4.49923 115 ft 17 kts 245°
2026-05-04 14:15 50.90691 4.48340 119 ft 141 kts 244°
2026-05-04 14:15 50.89768 4.45129 1110 ft 167 kts 246°
2026-05-04 14:16 50.88712 4.41485 1979 ft 205 kts 246°
2026-05-04 14:16 50.88083 4.39327 2318 ft 228 kts 246°
2026-05-04 14:17 50.86639 4.34372 3595 ft 261 kts 246°
2026-05-04 14:17 50.85814 4.31763 4564 ft 265 kts 237°
2026-05-04 14:17 50.82996 4.28060 6430 ft 273 kts 201°
2026-05-04 14:18 50.81128 4.27402 7316 ft 277 kts 183°
2026-05-04 14:18 50.77422 4.28984 9093 ft 285 kts 145°
2026-05-04 14:19 50.75049 4.33945 10761 ft 292 kts 107°
2026-05-04 14:19 50.74751 4.37131 11553 ft 297 kts 88°
2026-05-04 14:19 50.75010 4.40379 12353 ft 300 kts 84°
2026-05-04 14:19 50.75083 4.43695 13150 ft 303 kts 94°
2026-05-04 14:20 50.74748 4.46985 13906 ft 308 kts 105°
2026-05-04 14:20 50.74121 4.50289 14125 ft 330 kts 108°
2026-05-04 14:20 50.73407 4.53859 14279 ft 351 kts 108°
2026-05-04 14:21 50.71877 4.61365 15374 ft 365 kts 108°
2026-05-04 14:21 50.71128 4.65217 16035 ft 368 kts 107°
2026-05-04 14:21 50.70399 4.69107 16690 ft 372 kts 107°
2026-05-04 14:21 50.69674 4.73028 17342 ft 375 kts 107°
2026-05-04 14:22 50.68941 4.76991 17982 ft 378 kts 107°
2026-05-04 14:22 50.68194 4.80997 18571 ft 381 kts 108°
2026-05-04 14:22 50.67439 4.85015 19108 ft 385 kts 108°
2026-05-04 14:22 50.66516 4.89008 19623 ft 386 kts 117°
2026-05-04 14:23 50.63386 4.95840 20652 ft 388 kts 137°
2026-05-04 14:23 50.61448 4.98816 21179 ft 391 kts 137°
2026-05-04 14:23 50.59562 5.01724 21682 ft 393 kts 137°
2026-05-04 14:24 50.57586 5.04781 22200 ft 396 kts 137°
2026-05-04 14:24 50.55642 5.07791 22689 ft 399 kts 138°
2026-05-04 14:24 50.53635 5.10898 23185 ft 401 kts 138°
2026-05-04 14:24 50.51666 5.13940 23656 ft 403 kts 139°
2026-05-04 14:25 50.49663 5.17026 24081 ft 405 kts 139°
2026-05-04 14:25 50.45612 5.23252 24908 ft 409 kts 139°
2026-05-04 14:25 50.43569 5.26385 25332 ft 411 kts 139°
2026-05-04 14:26 50.41514 5.29528 25717 ft 413 kts 139°
2026-05-04 14:26 50.39459 5.32672 26112 ft 415 kts 139°
2026-05-04 14:26 50.37384 5.35849 26498 ft 417 kts 140°
2026-05-04 14:26 50.35310 5.39021 26872 ft 419 kts 140°
2026-05-04 14:27 50.33221 5.42213 27273 ft 421 kts 140°
2026-05-04 14:27 50.31112 5.45427 27648 ft 423 kts 140°
2026-05-04 14:27 50.29027 5.48598 28017 ft 425 kts 140°
2026-05-04 14:27 50.26897 5.51833 28375 ft 427 kts 140°
2026-05-04 14:28 50.24763 5.55072 28682 ft 430 kts 140°
2026-05-04 14:28 50.22614 5.58330 28998 ft 432 kts 140°
2026-05-04 14:28 50.20445 5.61614 29337 ft 434 kts 140°
2026-05-04 14:28 50.18275 5.64892 29670 ft 436 kts 140°
2026-05-04 14:29 50.13889 5.71496 30316 ft 440 kts 140°
2026-05-04 14:29 50.09402 5.78010 30904 ft 438 kts 146°
2026-05-04 14:30 50.06461 5.80989 30997 ft 425 kts 156°
2026-05-04 14:30 50.01085 5.84154 31004 ft 413 kts 165°
2026-05-04 14:31 49.98326 5.85576 31006 ft 412 kts 165°
2026-05-04 14:32 49.87498 5.91158 30991 ft 412 kts 165°
2026-05-04 14:32 49.82040 5.93956 31003 ft 413 kts 165°
2026-05-04 14:33 49.76588 5.96748 30996 ft 412 kts 165°
2026-05-04 14:33 49.71152 5.99533 31003 ft 411 kts 166°
2026-05-04 14:34 49.65720 6.02303 30998 ft 411 kts 166°
2026-05-04 14:34 49.60326 6.05045 31000 ft 411 kts 166°
2026-05-04 14:35 49.54916 6.07798 30998 ft 410 kts 166°
2026-05-04 14:35 49.49412 6.09880 31001 ft 405 kts 174°
2026-05-04 14:36 49.43856 6.11290 31003 ft 405 kts 174°
2026-05-04 14:36 49.38295 6.12679 31001 ft 404 kts 174°
2026-05-04 14:37 49.32745 6.14073 31007 ft 404 kts 174°
2026-05-04 14:37 49.27174 6.15525 31009 ft 411 kts 174°
2026-05-04 14:38 49.21604 6.16807 31003 ft 402 kts 174°
2026-05-04 14:38 49.16071 6.18074 31003 ft 401 kts 174°
2026-05-04 14:39 49.10558 6.19424 30994 ft 401 kts 174°
2026-05-04 14:39 49.05037 6.20814 30987 ft 402 kts 174°
2026-05-04 14:40 48.96797 6.22881 30986 ft 402 kts 174°
2026-05-04 14:40 48.91275 6.24244 30990 ft 402 kts 174°
2026-05-04 14:41 48.85762 6.25602 30993 ft 402 kts 174°
2026-05-04 14:42 48.74720 6.28333 31003 ft 402 kts 174°
2026-05-04 14:42 48.69227 6.29682 31001 ft 402 kts 174°
2026-05-04 14:43 48.63703 6.31027 31004 ft 402 kts 174°
2026-05-04 14:43 48.58181 6.32381 30991 ft 402 kts 174°
2026-05-04 14:44 48.52664 6.33733 30990 ft 402 kts 174°
2026-05-04 14:44 48.47146 6.35071 30992 ft 402 kts 174°
2026-05-04 14:45 48.41630 6.36399 31006 ft 401 kts 174°
2026-05-04 14:45 48.36128 6.37724 31007 ft 401 kts 174°
2026-05-04 14:46 48.30649 6.39054 31006 ft 401 kts 174°
2026-05-04 14:46 48.25145 6.40380 30992 ft 400 kts 173°
2026-05-04 14:47 48.19649 6.41697 30999 ft 400 kts 173°
2026-05-04 14:47 48.14149 6.43006 31095 ft 401 kts 174°
2026-05-04 14:48 48.08619 6.44290 31008 ft 401 kts 174°
2026-05-04 14:48 48.03102 6.45636 31000 ft 402 kts 173°
2026-05-04 14:49 47.97577 6.46974 30989 ft 402 kts 173°
2026-05-04 14:49 47.92089 6.48287 30992 ft 402 kts 173°
2026-05-04 14:50 47.86562 6.49591 30999 ft 402 kts 174°
2026-05-04 14:50 47.81035 6.50891 30998 ft 403 kts 173°
2026-05-04 14:51 47.75495 6.52208 31006 ft 403 kts 173°
2026-05-04 14:51 47.69952 6.53519 31007 ft 404 kts 173°
2026-05-04 14:52 47.64399 6.54830 31010 ft 404 kts 173°
2026-05-04 14:52 47.58841 6.56130 30998 ft 404 kts 173°
2026-05-04 14:53 47.53312 6.57428 31003 ft 404 kts 173°
2026-05-04 14:53 47.47760 6.58728 31008 ft 405 kts 173°
2026-05-04 14:54 47.42210 6.60022 31013 ft 405 kts 173°
2026-05-04 14:54 47.36631 6.61322 31009 ft 405 kts 173°
2026-05-04 14:55 47.31082 6.62614 31007 ft 405 kts 173°
2026-05-04 14:55 47.28286 6.63225 30887 ft 405 kts 176°
2026-05-04 14:55 47.25480 6.63313 30616 ft 404 kts 185°
2026-05-04 14:56 47.22711 6.62714 30376 ft 404 kts 194°
2026-05-04 14:56 47.20031 6.61421 30142 ft 405 kts 203°
2026-05-04 14:56 47.17546 6.59482 29860 ft 406 kts 212°
2026-05-04 14:56 47.15303 6.56949 29577 ft 408 kts 220°
2026-05-04 14:57 47.13221 6.54203 29304 ft 407 kts 220°
2026-05-04 14:57 47.11116 6.51437 28997 ft 406 kts 220°
2026-05-04 14:57 47.09008 6.48680 28497 ft 402 kts 220°
2026-05-04 14:57 47.06935 6.45978 28012 ft 399 kts 220°
2026-05-04 14:58 47.04875 6.43293 27536 ft 396 kts 220°
2026-05-04 14:58 47.02819 6.40615 27057 ft 394 kts 220°
2026-05-04 14:58 47.00781 6.37962 26604 ft 391 kts 220°
2026-05-04 14:58 46.99440 6.36217 26297 ft 389 kts 220°
2026-05-04 14:59 46.96732 6.32697 25697 ft 387 kts 220°
2026-05-04 14:59 46.94724 6.30095 25264 ft 384 kts 220°
2026-05-04 14:59 46.90766 6.24973 24426 ft 380 kts 220°
2026-05-04 15:00 46.88801 6.22419 24120 ft 378 kts 220°
2026-05-04 15:00 46.86842 6.19861 23924 ft 377 kts 220°
2026-05-04 15:00 46.84890 6.17308 23729 ft 376 kts 221°
2026-05-04 15:01 46.80997 6.12231 22991 ft 373 kts 221°
2026-05-04 15:01 46.79075 6.09728 22556 ft 370 kts 220°
2026-05-04 15:01 46.77158 6.07239 22094 ft 367 kts 220°
2026-05-04 15:01 46.75251 6.04769 21627 ft 365 kts 220°
2026-05-04 15:02 46.73360 6.02321 21159 ft 362 kts 220°
2026-05-04 15:02 46.71489 5.99903 20709 ft 360 kts 220°
2026-05-04 15:02 46.69638 5.97518 20265 ft 357 kts 220°
2026-05-04 15:02 46.67759 5.95102 19817 ft 355 kts 220°
2026-05-04 15:03 46.65928 5.92746 19388 ft 353 kts 221°
2026-05-04 15:03 46.64099 5.90395 18960 ft 351 kts 220°
2026-05-04 15:03 46.62271 5.88055 18541 ft 348 kts 221°
2026-05-04 15:03 46.60461 5.85772 18087 ft 345 kts 217°
2026-05-04 15:04 46.58353 5.84156 17607 ft 342 kts 197°
2026-05-04 15:04 46.56004 5.83826 17140 ft 343 kts 176°
2026-05-04 15:04 46.53724 5.84855 16670 ft 347 kts 154°
2026-05-04 15:04 46.51708 5.86802 16217 ft 347 kts 149°
2026-05-04 15:05 46.49742 5.88798 15761 ft 345 kts 148°
2026-05-04 15:05 46.47777 5.90792 15315 ft 342 kts 148°
2026-05-04 15:05 46.45833 5.92754 14875 ft 340 kts 149°
2026-05-04 15:05 46.43897 5.94698 14444 ft 337 kts 149°
2026-05-04 15:06 46.41965 5.96628 14026 ft 335 kts 149°
2026-05-04 15:06 46.40080 5.98509 13601 ft 334 kts 149°
2026-05-04 15:06 46.38206 6.00472 13123 ft 329 kts 141°
2026-05-04 15:07 46.36519 6.06299 12172 ft 322 kts 88°
2026-05-04 15:07 46.37123 6.09365 11726 ft 320 kts 62°
2026-05-04 15:07 46.38514 6.11855 11277 ft 317 kts 46°
2026-05-04 15:07 46.40056 6.14126 10834 ft 316 kts 46°
2026-05-04 15:08 46.41604 6.16381 10369 ft 312 kts 46°
2026-05-04 15:08 46.43133 6.18605 9936 ft 314 kts 46°
2026-05-04 15:08 46.44675 6.20854 9465 ft 315 kts 46°
2026-05-04 15:08 46.46217 6.23113 8986 ft 315 kts 46°
2026-05-04 15:09 46.47731 6.25346 8522 ft 309 kts 46°
2026-05-04 15:09 46.48456 6.26419 8281 ft 305 kts 46°
2026-05-04 15:11 46.49213 6.27557 8172 ft 301 kts 47°
2026-05-04 15:11 46.50667 6.29725 8042 ft 300 kts 46°
2026-05-04 15:11 46.52127 6.31891 8064 ft 302 kts 46°
2026-05-04 15:11 46.53594 6.34076 8059 ft 301 kts 46°
2026-05-04 15:12 46.54543 6.35545 8057 ft 301 kts 52°
2026-05-04 15:12 46.55449 6.38203 7908 ft 294 kts 82°
2026-05-04 15:12 46.55391 6.41109 7788 ft 285 kts 110°
2026-05-04 15:12 46.54489 6.43593 7673 ft 275 kts 135°
2026-05-04 15:13 46.52996 6.45228 7547 ft 268 kts 160°
2026-05-04 15:13 46.51213 6.45802 7419 ft 262 kts 181°
2026-05-04 15:13 46.49444 6.45458 7295 ft 252 kts 190°
2026-05-04 15:13 46.47779 6.44982 7161 ft 233 kts 197°
2026-05-04 15:14 46.46387 6.44041 7066 ft 211 kts 215°
2026-05-04 15:14 46.45311 6.42677 6993 ft 205 kts 224°
2026-05-04 15:14 46.44327 6.41215 6806 ft 204 kts 224°
2026-05-04 15:14 46.43342 6.39750 6543 ft 202 kts 225°
2026-05-04 15:15 46.42364 6.38297 6279 ft 200 kts 225°
2026-05-04 15:15 46.41388 6.36849 6007 ft 198 kts 224°
2026-05-04 15:15 46.40443 6.35448 5750 ft 195 kts 224°
2026-05-04 15:16 46.38585 6.32695 5247 ft 189 kts 225°
2026-05-04 15:16 46.37666 6.31335 4995 ft 188 kts 225°
2026-05-04 15:16 46.35852 6.28650 4479 ft 185 kts 225°
2026-05-04 15:17 46.34949 6.27316 4252 ft 186 kts 225°
2026-05-04 15:17 46.33156 6.24668 3745 ft 186 kts 225°
2026-05-04 15:17 46.32243 6.23319 3511 ft 184 kts 225°
2026-05-04 15:18 46.31351 6.22003 3264 ft 182 kts 225°
2026-05-04 15:18 46.30485 6.20727 3031 ft 178 kts 225°
2026-05-04 15:18 46.29637 6.19477 2779 ft 167 kts 226°
2026-05-04 15:19 46.28099 6.17212 2295 ft 150 kts 226°
2026-05-04 15:19 46.27382 6.16156 2082 ft 146 kts 226°
2026-05-04 15:19 46.25898 6.13978 2807 ft 167 kts 225°
2026-05-04 15:20 46.25037 6.12713 3203 ft 187 kts 225°
2026-05-04 15:20 46.24065 6.11286 3530 ft 210 kts 225°
2026-05-04 15:20 46.23049 6.09795 4553 ft 199 kts 225°
2026-05-04 15:20 46.22101 6.08404 5583 ft 192 kts 224°
2026-05-04 15:21 46.21166 6.07032 6427 ft 192 kts 224°
2026-05-04 15:21 46.20224 6.05654 6890 ft 198 kts 223°
2026-05-04 15:21 46.18294 6.02831 7005 ft 197 kts 223°
2026-05-04 15:22 46.17339 6.01435 7006 ft 196 kts 223°
2026-05-04 15:22 46.16380 6.00033 7010 ft 196 kts 223°
2026-05-04 15:22 46.14467 5.97239 7021 ft 196 kts 223°
2026-05-04 15:23 46.13376 5.96181 7011 ft 186 kts 197°
2026-05-04 15:23 46.12097 5.96119 7009 ft 188 kts 166°
2026-05-04 15:23 46.10988 5.97109 6994 ft 194 kts 132°
2026-05-04 15:23 46.10507 5.98873 7414 ft 190 kts 99°
2026-05-04 15:24 46.11756 6.02392 7318 ft 218 kts 42°
2026-05-04 15:24 46.14105 6.05185 7315 ft 219 kts 41°
2026-05-04 15:25 46.15288 6.06585 7241 ft 220 kts 41°
2026-05-04 15:25 46.16467 6.07992 7104 ft 218 kts 42°
2026-05-04 15:25 46.17635 6.09392 7014 ft 218 kts 42°
2026-05-04 15:26 46.19954 6.12182 6981 ft 217 kts 42°
2026-05-04 15:26 46.21113 6.13581 6986 ft 219 kts 41°
2026-05-04 15:26 46.23458 6.16407 6983 ft 220 kts 41°
2026-05-04 15:27 46.24621 6.17806 6980 ft 220 kts 41°
2026-05-04 15:27 46.27046 6.20735 6985 ft 240 kts 41°
2026-05-04 15:28 46.29102 6.23220 6983 ft 243 kts 41°
2026-05-04 15:29 46.29924 6.24243 6941 ft 243 kts 42°
2026-05-04 15:30 46.35084 6.30490 6987 ft 243 kts 41°
2026-05-04 15:30 46.38968 6.35186 6992 ft 243 kts 41°
2026-05-04 15:31 46.41580 6.38358 6997 ft 246 kts 41°
2026-05-04 15:31 46.42889 6.39953 6995 ft 247 kts 41°
2026-05-04 15:32 46.46819 6.44734 6991 ft 247 kts 39°
2026-05-04 15:32 46.49962 6.45625 6991 ft 238 kts 339°
2026-05-04 15:33 46.53044 6.43724 6993 ft 245 kts 339°
2026-05-04 15:34 46.57325 6.46620 6991 ft 246 kts 73°
2026-05-04 15:34 46.57548 6.49020 6990 ft 235 kts 100°
2026-05-04 15:34 46.55914 6.52791 6992 ft 224 kts 151°
2026-05-04 15:35 46.52927 6.53243 6997 ft 224 kts 200°
2026-05-04 15:35 46.51629 6.52061 6999 ft 226 kts 221°
2026-05-04 15:35 46.50504 6.50453 6997 ft 227 kts 224°
2026-05-04 15:36 46.48335 6.47120 6997 ft 227 kts 225°
2026-05-04 15:36 46.47251 6.45446 6998 ft 227 kts 225°
2026-05-04 15:36 46.46306 6.43625 7000 ft 225 kts 245°
2026-05-04 15:37 46.46060 6.41426 6999 ft 226 kts 274°
2026-05-04 15:37 46.46626 6.39283 6999 ft 234 kts 304°
2026-05-04 15:37 46.47932 6.37841 6998 ft 242 kts 338°
2026-05-04 15:37 46.49601 6.37649 6997 ft 246 kts 13°
2026-05-04 15:38 46.51090 6.38828 6996 ft 248 kts 46°
2026-05-04 15:38 46.52266 6.40661 6998 ft 249 kts 49°
2026-05-04 15:38 46.53461 6.42499 6995 ft 250 kts 48°
2026-05-04 15:38 46.54673 6.44333 6995 ft 252 kts 47°
2026-05-04 15:39 46.55817 6.46198 6989 ft 250 kts 60°
2026-05-04 15:39 46.56293 6.48527 6988 ft 237 kts 94°
2026-05-04 15:39 46.54700 6.52267 6995 ft 224 kts 156°
2026-05-04 15:40 46.53204 6.52725 6999 ft 223 kts 184°
2026-05-04 15:40 46.51739 6.52037 6998 ft 225 kts 213°
2026-05-04 15:40 46.50591 6.50502 7001 ft 227 kts 224°
2026-05-04 15:40 46.49482 6.48874 7000 ft 227 kts 224°
2026-05-04 15:41 46.48377 6.47235 6998 ft 224 kts 224°
2026-05-04 15:41 46.47308 6.45644 6998 ft 217 kts 224°
2026-05-04 15:41 46.46258 6.44083 7010 ft 214 kts 224°
2026-05-04 15:41 46.45257 6.42594 6974 ft 207 kts 224°
2026-05-04 15:42 46.44226 6.41063 6779 ft 211 kts 224°
2026-05-04 15:42 46.43201 6.39540 6526 ft 215 kts 224°
2026-05-04 15:42 46.42145 6.37972 6212 ft 212 kts 224°
2026-05-04 15:42 46.41142 6.36484 5942 ft 208 kts 224°
2026-05-04 15:43 46.40144 6.35005 5663 ft 204 kts 224°
2026-05-04 15:43 46.39161 6.33549 5390 ft 202 kts 224°
2026-05-04 15:43 46.38167 6.32077 5124 ft 206 kts 225°
2026-05-04 15:43 46.37158 6.30583 4849 ft 208 kts 225°
2026-05-04 15:44 46.36140 6.29077 4565 ft 208 kts 225°
2026-05-04 15:44 46.35131 6.27585 4280 ft 208 kts 225°
2026-05-04 15:44 46.34126 6.26100 4001 ft 203 kts 225°
2026-05-04 15:44 46.33152 6.24662 3722 ft 198 kts 225°
2026-05-04 15:45 46.32204 6.23262 3480 ft 192 kts 226°
2026-05-04 15:45 46.31280 6.21899 3249 ft 187 kts 226°
2026-05-04 15:45 46.30386 6.20581 2974 ft 179 kts 226°
2026-05-04 15:45 46.29537 6.19330 2718 ft 171 kts 226°
2026-05-04 15:46 46.28722 6.18129 2455 ft 168 kts 227°
2026-05-04 15:46 46.27909 6.16933 2206 ft 165 kts 227°
2026-05-04 15:46 46.27130 6.15786 1997 ft 155 kts 227°
2026-05-04 15:46 46.26396 6.14710 1924 ft 148 kts 226°
2026-05-04 15:47 46.25632 6.13602 2723 ft 165 kts 226°
2026-05-04 15:47 46.24790 6.12361 3251 ft 182 kts 226°
2026-05-04 15:47 46.23848 6.10968 3593 ft 207 kts 225°
2026-05-04 15:47 46.22822 6.09460 4362 ft 213 kts 225°
2026-05-04 15:48 46.21779 6.07930 5321 ft 213 kts 224°
2026-05-04 15:48 46.20750 6.06421 6241 ft 215 kts 223°
2026-05-04 15:48 46.18616 6.03301 6934 ft 212 kts 223°
2026-05-04 15:49 46.17620 6.01841 6967 ft 199 kts 223°
2026-05-04 15:49 46.16653 6.00426 6982 ft 197 kts 223°
2026-05-04 15:49 46.15690 5.99021 6985 ft 197 kts 223°
2026-05-04 15:49 46.14728 5.97616 6984 ft 197 kts 223°
2026-05-04 15:50 46.13699 5.96373 6990 ft 189 kts 204°
2026-05-04 15:50 46.12434 5.96147 6985 ft 188 kts 170°
2026-05-04 15:50 46.11298 5.97100 6980 ft 196 kts 131°
2026-05-04 15:50 46.10806 5.98931 6978 ft 204 kts 92°
2026-05-04 15:51 46.11258 6.00866 6982 ft 212 kts 51°
2026-05-04 15:51 46.12356 6.02317 6983 ft 216 kts 42°
2026-05-04 15:51 46.13509 6.03718 6982 ft 217 kts 42°
2026-05-04 15:51 46.14664 6.05119 6995 ft 232 kts 42°
2026-05-04 15:52 46.16012 6.06765 6994 ft 273 kts 42°
2026-05-04 15:52 46.17503 6.08587 6980 ft 285 kts 42°
2026-05-04 15:52 46.19024 6.10439 6977 ft 287 kts 42°
2026-05-04 15:52 46.20549 6.12296 6980 ft 287 kts 42°
2026-05-04 15:53 46.22079 6.14166 6984 ft 289 kts 42°
2026-05-04 15:53 46.23611 6.16046 6983 ft 290 kts 42°
2026-05-04 15:53 46.25146 6.17933 6982 ft 289 kts 42°
2026-05-04 15:53 46.26681 6.19824 6982 ft 289 kts 42°
2026-05-04 15:54 46.28216 6.21713 6980 ft 289 kts 42°
2026-05-04 15:54 46.29748 6.23597 6984 ft 289 kts 42°
2026-05-04 15:54 46.31258 6.25460 6984 ft 289 kts 42°
2026-05-04 15:54 46.32786 6.27347 6988 ft 289 kts 42°
2026-05-04 15:55 46.34316 6.29240 6991 ft 289 kts 42°
2026-05-04 15:55 46.35844 6.31131 6989 ft 289 kts 42°
2026-05-04 15:55 46.37371 6.33018 6988 ft 289 kts 42°
2026-05-04 15:55 46.38896 6.34901 6992 ft 289 kts 42°
2026-05-04 15:56 46.40432 6.36808 6995 ft 292 kts 41°
2026-05-04 15:56 46.41979 6.38730 7006 ft 294 kts 41°
2026-05-04 15:56 46.43536 6.40662 7005 ft 294 kts 41°
2026-05-04 15:56 46.45084 6.42584 7004 ft 293 kts 41°
2026-05-04 15:57 46.46643 6.44499 7001 ft 294 kts 38°
2026-05-04 15:57 46.48482 6.45709 6819 ft 289 kts
2026-05-04 15:57 46.50402 6.45313 6721 ft 281 kts 330°
2026-05-04 15:57 46.51801 6.43486 6720 ft 260 kts 294°
2026-05-04 15:58 46.52167 6.41104 6594 ft 239 kts 258°
2026-05-04 15:58 46.51461 6.39042 6460 ft 226 kts 219°
2026-05-04 15:58 46.50058 6.38180 6309 ft 220 kts 188°
2026-05-04 15:58 46.48577 6.37903 6149 ft 214 kts 188°
2026-05-04 15:59 46.47119 6.37636 5998 ft 210 kts 188°
2026-05-04 15:59 46.45687 6.37338 5836 ft 206 kts 197°
2026-05-04 15:59 46.44414 6.36448 5704 ft 203 kts 209°
2026-05-04 15:59 46.43175 6.35530 5582 ft 200 kts 206°
2026-05-04 16:00 46.41923 6.34650 5456 ft 201 kts 207°
2026-05-04 16:00 46.40661 6.33774 5328 ft 199 kts 206°
2026-05-04 16:00 46.39421 6.32912 5190 ft 197 kts 206°
2026-05-04 16:00 46.38186 6.31971 5044 ft 205 kts 217°
2026-05-04 16:01 46.37128 6.30560 4824 ft 207 kts 225°
2026-05-04 16:01 46.36127 6.29069 4556 ft 207 kts 225°
2026-05-04 16:01 46.35136 6.27595 4286 ft 207 kts 225°
2026-05-04 16:01 46.34125 6.26099 3995 ft 202 kts 225°
2026-05-04 16:02 46.33157 6.24669 3725 ft 195 kts 226°
2026-05-04 16:02 46.32222 6.23289 3482 ft 190 kts 226°
2026-05-04 16:02 46.30464 6.20696 2993 ft 173 kts 226°
2026-05-04 16:03 46.29640 6.19482 2738 ft 165 kts 227°
2026-05-04 16:03 46.28861 6.18336 2499 ft 156 kts 227°
2026-05-04 16:03 46.28121 6.17245 2275 ft 150 kts 227°
2026-05-04 16:03 46.27399 6.16181 2067 ft 147 kts 227°
2026-05-04 16:04 46.26686 6.15132 1871 ft 146 kts 227°
2026-05-04 16:04 46.25275 6.13057 1517 ft 148 kts 227°
2026-05-04 16:04 46.24515 6.11940 2232 ft 160 kts 228°
2026-05-04 16:05 46.23707 6.10712 3056 ft 182 kts 226°
2026-05-04 16:05 46.22778 6.09341 3676 ft 192 kts 225°
2026-05-04 16:05 46.20898 6.06608 4320 ft 191 kts 225°
2026-05-04 16:06 46.20047 6.05369 4735 ft 193 kts 224°
2026-05-04 16:06 46.17642 6.01867 5883 ft 197 kts 223°
2026-05-04 16:07 46.16352 5.99984 6504 ft 198 kts 222°
2026-05-04 16:07 46.13272 5.96223 7006 ft 188 kts 186°
2026-05-04 16:08 46.12041 5.96811 7016 ft 198 kts 140°
2026-05-04 16:08 46.13013 6.02040 7017 ft 229 kts 43°
2026-05-04 16:09 46.15755 6.05283 6997 ft 265 kts 41°
2026-05-04 16:09 46.18553 6.08761 7013 ft 265 kts 43°
2026-05-04 16:10 46.21460 6.12472 7015 ft 287 kts 43°
2026-05-04 16:11 46.25970 6.18202 7019 ft 289 kts 43°
2026-05-04 16:11 46.27477 6.20112 7018 ft 289 kts 43°
2026-05-04 16:12 46.32015 6.25865 7020 ft 289 kts 43°
2026-05-04 16:12 46.36538 6.31615 7021 ft 287 kts 43°
2026-05-04 16:13 46.39370 6.35216 7024 ft 255 kts 43°
2026-05-04 16:13 46.41972 6.38533 7026 ft 250 kts 42°
2026-05-04 16:14 46.44580 6.41870 7030 ft 249 kts 42°
2026-05-04 16:14 46.47210 6.45118 7014 ft 249 kts 31°
2026-05-04 16:15 46.50946 6.42524 7033 ft 223 kts 266°
2026-05-04 16:16 46.50483 6.38163 7027 ft 227 kts 278°
2026-05-04 16:16 46.54321 6.34878 7022 ft 248 kts 17°
2026-05-04 16:17 46.56506 6.38188 7021 ft 233 kts 84°
2026-05-04 16:18 46.54070 6.42772 7033 ft 207 kts 177°
2026-05-04 16:18 46.52635 6.42908 7018 ft 207 kts 181°
2026-05-04 16:19 46.48330 6.43078 7021 ft 206 kts 181°
2026-05-04 16:19 46.45523 6.42565 6988 ft 206 kts 207°
2026-05-04 16:20 46.42385 6.38329 6295 ft 207 kts 225°
2026-05-04 16:20 46.40373 6.35342 5725 ft 208 kts 225°
2026-05-04 16:21 46.37322 6.30823 4889 ft 210 kts 225°
2026-05-04 16:22 46.35298 6.27830 4323 ft 203 kts 225°
2026-05-04 16:22 46.32467 6.23648 3565 ft 188 kts 226°
2026-05-04 16:23 46.29954 6.19945 2836 ft 157 kts 226°
2026-05-04 16:24 46.27052 6.15670 1982 ft 145 kts 226°
2026-05-04 16:25 46.25641 6.13595 1605 ft 144 kts 227°
2026-05-04 16:26 46.23580 6.10562 1384 ft 48 kts 225°
2026-05-04 16:26 46.23113 6.10094 1404 ft 6 kts 171°
2026-05-04 16:27 46.23014 6.10218 1398 ft 6 kts 135°
2026-05-04 16:28 46.22954 6.10325 1395 ft 6 kts 99°
2026-05-04 16:28 46.23026 6.10454 1395 ft 0 kts 46°
2026-05-04 16:29 46.23005 6.10533 1398 ft 0 kts 135°